| time (UTC) | temp C | wind direction | speed KPH | gust KPH | rain 1hr cm | rain 24hr cm | rain mn cm | humidity % | barometer mb |
| 20260905223437 | 13 | 356 | 1.6 | 4.8 | 0.10 | 0.23 | 0.08 | 82 | 1018.4 |
| 20260905222437 | 13 | 321 | 0.0 | 4.8 | 0.10 | 0.23 | 0.08 | 82 | 1018.4 |
| 20260905221438 | 13 | 309 | 0.0 | 6.4 | 0.10 | 0.23 | 0.08 | 78 | 1018.4 |
| 20260905220437 | 15 | 204 | 1.6 | 4.8 | 0.03 | 0.23 | 0.00 | 71 | 1018.3 |
| 20260905215437 | 16 | 98 | 1.6 | 6.4 | 0.00 | 0.20 | 0.20 | 66 | 1018.1 |
| 20260905214437 | 17 | 32 | 0.0 | 8.0 | 0.00 | 0.20 | 0.20 | 61 | 1018.5 |
| 20260905213437 | 17 | 65 | 6.4 | 9.7 | 0.00 | 0.20 | 0.20 | 60 | 1017.8 |
| 20260905212436 | 16 | 284 | 0.0 | 4.8 | 0.00 | 0.20 | 0.20 | 62 | 1017.6 |
| 20260905211912 | 16 | 62 | 0.0 | 3.2 | 0.00 | 0.20 | 0.20 | 63 | 1017.3 |
| 20260905210437 | 16 | 263 | 0.0 | 1.6 | 0.00 | 0.20 | 0.20 | 64 | 1017.6 |
| 20260905210357 | 16 | 135 | 0.0 | 1.6 | 0.00 | 0.20 | 0.20 | 64 | 1017.3 |
| 20260905204850 | 16 | 297 | 0.0 | 1.6 | 0.00 | 0.20 | 0.20 | 63 | 1017.5 |
| 20260905204622 | 16 | 94 | 0.0 | 1.6 | 0.00 | 0.20 | 0.20 | 63 | 1017.4 |
| 20260905202437 | 16 | 135 | 0.0 | 1.6 | 0.00 | 0.20 | 0.20 | 63 | 1017.4 |
| 20260905201437 | 16 | 299 | 0.0 | 3.2 | 0.00 | 0.20 | 0.20 | 63 | 1017.4 |
| 20260905200437 | 16 | 242 | 0.0 | 3.2 | 0.00 | 0.20 | 0.20 | 62 | 1017.3 |
| 20260905195436 | 16 | 26 | 0.0 | 1.6 | 0.00 | 0.20 | 0.20 | 61 | 1017.4 |
| 20260905194912 | 17 | 96 | 0.0 | 4.8 | 0.00 | 0.20 | 0.20 | 61 | 1017.2 |
| 20260905194358 | 16 | 62 | 0.0 | 3.2 | 0.00 | 0.20 | 0.20 | 61 | 1017.2 |
| 20260905192437 | 16 | 66 | 0.0 | 3.2 | 0.00 | 0.20 | 0.20 | 61 | 1017.1 |
| 20260905191437 | 16 | 89 | 1.6 | 3.2 | 0.00 | 0.20 | 0.20 | 61 | 1017.3 |
| 20260905190436 | 16 | 259 | 0.0 | 3.2 | 0.00 | 0.20 | 0.20 | 61 | 1017.0 |
| 20260905185437 | 17 | 261 | 0.0 | 3.2 | 0.00 | 0.20 | 0.20 | 60 | 1016.9 |
| 20260905184440 | 17 | 44 | 0.0 | 3.2 | 0.00 | 0.20 | 0.20 | 60 | 1016.7 |
| 20260905183438 | 17 | 256 | 0.0 | 3.2 | 0.00 | 0.20 | 0.20 | 60 | 1016.7 |
| 20260905182437 | 17 | 239 | 0.0 | 3.2 | 0.00 | 0.20 | 0.20 | 60 | 1016.8 |
| 20260905181439 | 17 | 297 | 0.0 | 1.6 | 0.00 | 0.20 | 0.20 | 60 | 1016.7 |
| 20260905180436 | 17 | 250 | 0.0 | 0.0 | 0.00 | 0.20 | 0.20 | 60 | 1016.6 |
| 20260905175437 | 17 | 95 | 0.0 | 0.0 | 0.00 | 0.20 | 0.20 | 59 | 1016.8 |
| 20260905174437 | 17 | 82 | 0.0 | 1.6 | 0.00 | 0.20 | 0.20 | 58 | 1016.8 |
| 20260905174352 | 18 | 108 | 0.0 | 1.6 | 0.00 | 0.20 | 0.20 | 56 | 1016.6 |
| 20260905172437 | 18 | 242 | 0.0 | 1.6 | 0.00 | 0.20 | 0.20 | 55 | 1016.7 |
| 20260905171437 | 18 | 97 | 0.0 | 3.2 | 0.00 | 0.20 | 0.20 | 55 | 1016.6 |
| 20260905170915 | 18 | 215 | 0.0 | 1.6 | 0.00 | 0.20 | 0.20 | 54 | 1016.6 |
| 20260905165438 | 19 | 288 | 0.0 | 1.6 | 0.00 | 0.20 | 0.20 | 52 | 1016.4 |
| 20260905164437 | 20 | 244 | 0.0 | 3.2 | 0.00 | 0.20 | 0.20 | 50 | 1016.3 |
| 20260905163437 | 20 | 262 | 0.0 | 4.8 | 0.00 | 0.20 | 0.20 | 49 | 1016.5 |
| 20260905162437 | 20 | 234 | 0.0 | 4.8 | 0.00 | 0.20 | 0.20 | 48 | 1016.3 |
| 20260905161921 | 20 | 272 | 4.8 | 4.8 | 0.00 | 0.20 | 0.20 | 48 | 1016.4 |
| 20260905160436 | 21 | 107 | 3.2 | 3.2 | 0.00 | 0.20 | 0.20 | 47 | 1016.0 |
| 20260905155920 | 21 | 77 | 0.0 | 4.8 | 0.00 | 0.20 | 0.20 | 46 | 1015.9 |
| 20260905154437 | 21 | 210 | 1.6 | 9.7 | 0.00 | 0.20 | 0.20 | 45 | 1015.9 |
| 20260905153919 | 22 | 31 | 0.0 | 4.8 | 0.00 | 0.20 | 0.20 | 45 | 1015.7 |
| 20260905152437 | 21 | 279 | 0.0 | 8.0 | 0.00 | 0.20 | 0.20 | 44 | 1015.7 |
| 20260905151436 | 21 | 97 | 1.6 | 6.4 | 0.00 | 0.20 | 0.20 | 44 | 1015.9 |
| 20260905150437 | 22 | 71 | 1.6 | 8.0 | 0.00 | 0.20 | 0.20 | 43 | 1015.9 |
| 20260905145438 | 22 | 302 | 3.2 | 8.0 | 0.00 | 0.20 | 0.20 | 42 | 1015.8 |
| 20260905144437 | 22 | 280 | 4.8 | 9.7 | 0.00 | 0.20 | 0.20 | 43 | 1015.9 |
| 20260905143437 | 23 | 271 | 6.4 | 9.7 | 0.00 | 0.20 | 0.20 | 42 | 1015.6 |
| 20260905142437 | 23 | 37 | 3.2 | 9.7 | 0.00 | 0.20 | 0.20 | 43 | 1015.8 |
| 20260905141437 | 23 | 272 | 3.2 | 9.7 | 0.00 | 0.20 | 0.20 | 43 | 1015.7 |
| 20260905140437 | 23 | 289 | 6.4 | 9.7 | 0.00 | 0.20 | 0.20 | 42 | 1015.6 |
| 20260905135437 | 23 | 242 | 4.8 | 16.1 | 0.00 | 0.20 | 0.20 | 40 | 1015.5 |
| 20260905134437 | 23 | 260 | 1.6 | 11.3 | 0.00 | 0.20 | 0.20 | 43 | 1015.4 |
| 20260905133437 | 23 | 278 | 3.2 | 9.7 | 0.00 | 0.20 | 0.20 | 43 | 1015.5 |
| 20260905132438 | 22 | 176 | 4.8 | 8.0 | 0.00 | 0.20 | 0.20 | 45 | 1015.3 |
| 20260905131437 | 23 | 221 | 3.2 | 9.7 | 0.00 | 0.20 | 0.20 | 43 | 1015.3 |
| 20260905130842 | 22 | 291 | 3.2 | 9.7 | 0.00 | 0.20 | 0.20 | 45 | 1015.4 |
| 20260905130619 | 23 | 96 | 3.2 | 9.7 | 0.00 | 0.20 | 0.20 | 44 | 1015.2 |
| 20260905124437 | 23 | 304 | 6.4 | 11.3 | 0.00 | 0.20 | 0.20 | 44 | 1015.6 |
| 20260905123924 | 21 | 230 | 3.2 | 9.7 | 0.00 | 0.20 | 0.20 | 47 | 1015.6 |
| 20260905122437 | 21 | 189 | 3.2 | 11.3 | 0.00 | 0.20 | 0.20 | 49 | 1015.7 |
| 20260905121437 | 21 | 156 | 3.2 | 8.0 | 0.00 | 0.20 | 0.20 | 50 | 1015.7 |
| 20260905120437 | 20 | 271 | 3.2 | 6.4 | 0.00 | 0.20 | 0.20 | 53 | 1015.8 |
| 20260905115437 | 20 | 200 | 0.0 | 6.4 | 0.00 | 0.20 | 0.20 | 55 | 1015.9 |
| 20260905114915 | 20 | 76 | 3.2 | 4.8 | 0.00 | 0.20 | 0.20 | 54 | 1015.6 |
| 20260905113437 | 20 | 256 | 0.0 | 9.7 | 0.00 | 0.20 | 0.20 | 55 | 1015.9 |
| 20260905112437 | 19 | 279 | 1.6 | 6.4 | 0.00 | 0.20 | 0.20 | 54 | 1015.7 |
| 20260905111922 | 19 | 263 | 1.6 | 11.3 | 0.00 | 0.20 | 0.20 | 57 | 1015.9 |
| 20260905110438 | 19 | 317 | 9.7 | 9.7 | 0.00 | 0.20 | 0.20 | 55 | 1015.9 |
| 20260905105437 | 19 | 268 | 6.4 | 11.3 | 0.00 | 0.20 | 0.20 | 57 | 1016.0 |
| 20260905104922 | 19 | 88 | 3.2 | 8.0 | 0.00 | 0.20 | 0.20 | 59 | 1015.9 |
| 20260905103437 | 20 | 327 | 6.4 | 6.4 | 0.00 | 0.20 | 0.20 | 57 | 1015.7 |
| 20260905102918 | 18 | 327 | 3.2 | 8.0 | 0.00 | 0.20 | 0.20 | 61 | 1015.9 |
| 20260905101437 | 18 | 243 | 3.2 | 8.0 | 0.00 | 0.20 | 0.20 | 62 | 1015.6 |
| 20260905100437 | 18 | 228 | 1.6 | 9.7 | 0.00 | 0.20 | 0.20 | 63 | 1015.6 |
| 20260905095922 | 19 | 275 | 3.2 | 8.0 | 0.00 | 0.20 | 0.20 | 62 | 1015.4 |
| 20260905094436 | 18 | 282 | 3.2 | 11.3 | 0.00 | 0.20 | 0.20 | 64 | 1015.4 |
| 20260905093437 | 19 | 49 | 3.2 | 9.7 | 0.00 | 0.20 | 0.20 | 63 | 1015.5 |
| 20260905092437 | 18 | 87 | 3.2 | 9.7 | 0.00 | 0.20 | 0.20 | 63 | 1015.5 |
| 20260905091437 | 18 | 290 | 8.0 | 8.0 | 0.00 | 0.20 | 0.20 | 66 | 1015.6 |
| 20260905090439 | 18 | 280 | 3.2 | 8.0 | 0.00 | 0.20 | 0.20 | 68 | 1015.5 |
| 20260905085916 | 18 | 265 | 6.4 | 9.7 | 0.00 | 0.20 | 0.20 | 69 | 1015.4 |
| 20260905084436 | 17 | 354 | 3.2 | 9.7 | 0.00 | 0.20 | 0.20 | 71 | 1015.6 |
| 20260905083913 | 17 | 292 | 3.2 | 8.0 | 0.00 | 0.20 | 0.20 | 72 | 1015.5 |
| 20260905082437 | 17 | 276 | 4.8 | 6.4 | 0.00 | 0.20 | 0.20 | 73 | 1015.4 |
| 20260905081442 | 17 | 286 | 3.2 | 6.4 | 0.00 | 0.20 | 0.20 | 74 | 1015.3 |
| 20260905080437 | 17 | 260 | 3.2 | 11.3 | 0.00 | 0.20 | 0.20 | 74 | 1015.5 |
| 20260905075437 | 17 | 310 | 3.2 | 8.0 | 0.00 | 0.20 | 0.20 | 73 | 1015.1 |
| 20260905074437 | 17 | 6 | 0.0 | 9.7 | 0.00 | 0.20 | 0.20 | 74 | 1015.2 |
| 20260905073910 | 17 | 319 | 1.6 | 8.0 | 0.00 | 0.20 | 0.20 | 72 | 1014.9 |
| 20260905072436 | 17 | 275 | 4.8 | 8.0 | 0.00 | 0.20 | 0.20 | 73 | 1014.9 |
| 20260905071437 | 17 | 265 | 3.2 | 14.5 | 0.00 | 0.20 | 0.20 | 73 | 1014.7 |
| 20260905070438 | 17 | 299 | 3.2 | 6.4 | 0.00 | 0.20 | 0.20 | 75 | 1014.3 |
| 20260905065927 | 17 | 22 | 0.0 | 12.9 | 0.00 | 0.20 | 0.20 | 76 | 1014.7 |
| 20260905064437 | 17 | 280 | 6.4 | 9.7 | 0.03 | 0.20 | 0.20 | 77 | 1014.3 |
| 20260905063437 | 16 | 268 | 4.8 | 6.4 | 0.03 | 0.20 | 0.20 | 78 | 1014.3 |
| 20260905062437 | 16 | 305 | 3.2 | 8.0 | 0.03 | 0.20 | 0.20 | 78 | 1014.2 |
| 20260905061437 | 16 | 244 | 0.0 | 6.4 | 0.05 | 0.20 | 0.20 | 79 | 1014.0 |
| 20260905060437 | 16 | 309 | 1.6 | 8.0 | 0.05 | 0.20 | 0.20 | 80 | 1013.6 |
| 20260905055916 | 16 | 40 | 0.0 | 6.4 | 0.05 | 0.15 | 0.20 | 79 | 1013.7 |
| 20260905054437 | 16 | 147 | 0.0 | 4.8 | 0.05 | 0.15 | 0.18 | 80 | 1013.9 |
| 20260905053436 | 16 | 173 | 1.6 | 6.4 | 0.05 | 0.15 | 0.18 | 80 | 1013.4 |
| 20260905052436 | 16 | 271 | 3.2 | 8.0 | 0.05 | 0.15 | 0.18 | 80 | 1013.4 |
| 20260905051439 | 16 | 22 | 3.2 | 8.0 | 0.05 | 0.15 | 0.18 | 78 | 1013.5 |
| 20260905050436 | 16 | 283 | 8.0 | 9.7 | 0.03 | 0.15 | 0.15 | 78 | 1013.5 |
| 20260905045436 | 17 | 206 | 0.0 | 8.0 | 0.03 | 0.13 | 0.15 | 76 | 1013.2 |
| 20260905044919 | 17 | 304 | 1.6 | 8.0 | 0.00 | 0.13 | 0.13 | 75 | 1013.4 |
| 20260905043437 | 17 | 267 | 3.2 | 9.7 | 0.00 | 0.13 | 0.13 | 75 | 1013.0 |
| 20260905042437 | 17 | 21 | 1.6 | 11.3 | 0.00 | 0.13 | 0.13 | 75 | 1012.5 |
| 20260905041437 | 17 | 291 | 4.8 | 9.7 | 0.00 | 0.13 | 0.13 | 75 | 1013.1 |
| 20260905040437 | 16 | 243 | 1.6 | 6.4 | 0.03 | 0.13 | 0.13 | 76 | 1012.5 |
| 20260905035828 | 16 | 288 | 4.8 | 9.7 | 0.03 | 0.10 | 0.13 | 78 | 1012.3 |
| 20260905035611 | 16 | 187 | 0.0 | 8.0 | 0.03 | 0.10 | 0.13 | 77 | 1012.4 |
| 20260905033437 | 16 | 102 | 0.0 | 6.4 | 0.03 | 0.10 | 0.13 | 80 | 1012.1 |
| 20260905032437 | 16 | 289 | 3.2 | 4.8 | 0.05 | 0.10 | 0.13 | 82 | 1012.3 |
| 20260905031437 | 15 | 282 | 1.6 | 4.8 | 0.05 | 0.10 | 0.10 | 82 | 1012.4 |
| 20260905030437 | 15 | 132 | 0.0 | 6.4 | 0.08 | 0.10 | 0.10 | 81 | 1012.4 |
| 20260905025437 | 15 | 279 | 6.4 | 8.0 | 0.08 | 0.05 | 0.10 | 82 | 1012.4 |
| 20260905024919 | 15 | 265 | 1.6 | 9.7 | 0.10 | 0.05 | 0.10 | 83 | 1012.0 |
| 20260905023437 | 15 | 257 | 1.6 | 9.7 | 0.10 | 0.05 | 0.10 | 82 | 1012.1 |
| 20260905022437 | 16 | 266 | 0.0 | 8.0 | 0.08 | 0.05 | 0.08 | 82 | 1012.3 |
| 20260905021437 | 16 | 313 | 4.8 | 9.7 | 0.08 | 0.05 | 0.08 | 79 | 1012.1 |
| 20260905020436 | 17 | 262 | 1.6 | 9.7 | 0.05 | 0.05 | 0.05 | 76 | 1012.0 |
| 20260905015437 | 18 | 193 | 3.2 | 9.7 | 0.03 | 0.00 | 0.03 | 70 | 1012.4 |
| 20260905014436 | 18 | 325 | 4.8 | 9.7 | 0.00 | 0.00 | 0.00 | 68 | 1011.7 |
| 20260905013437 | 19 | 178 | 3.2 | 8.0 | 0.00 | 0.00 | 0.00 | 66 | 1011.3 |
| 20260905012437 | 19 | 169 | 0.0 | 11.3 | 0.00 | 0.00 | 0.00 | 65 | 1011.4 |
| 20260905011437 | 19 | 77 | 3.2 | 11.3 | 0.00 | 0.00 | 0.00 | 65 | 1011.0 |
| 20260905010919 | 20 | 17 | 6.4 | 11.3 | 0.00 | 0.00 | 0.00 | 63 | 1011.1 |
| 20260905005437 | 20 | 278 | 3.2 | 12.9 | 0.00 | 0.00 | 0.00 | 66 | 1010.9 |
| 20260905004436 | 20 | 320 | 0.0 | 11.3 | 0.00 | 0.00 | 0.00 | 66 | 1010.5 |
| 20260905003437 | 20 | 323 | 1.6 | 8.0 | 0.00 | 0.00 | 0.00 | 66 | 1010.4 |
| 20260905002436 | 20 | 344 | 3.2 | 6.4 | 0.00 | 0.00 | 0.00 | 67 | 1010.3 |
| 20260905001437 | 20 | 121 | 0.0 | 4.8 | 0.00 | 0.00 | 0.00 | 67 | 1009.8 |
| 20260905000439 | 21 | 239 | 0.0 | 6.4 | 0.00 | 0.00 | 0.00 | 67 | 1009.8 |
| 20260904235437 | 21 | 293 | 0.0 | 6.4 | 0.00 | 0.00 | 0.00 | 67 | 1009.4 |
| 20260904234437 | 21 | 100 | 3.2 | 6.4 | 0.00 | 0.00 | 0.00 | 69 | 1009.6 |
| 20260904233436 | 21 | 54 | 0.0 | 4.8 | 0.00 | 0.00 | 0.00 | 68 | 1009.2 |
| 20260904232437 | 21 | 242 | 1.6 | 4.8 | 0.00 | 0.00 | 0.00 | 66 | 1009.3 |
| 20260904232352 | 21 | 177 | 0.0 | 4.8 | 0.00 | 0.00 | 0.00 | 65 | 1009.3 |
| 20260904230442 | 22 | 121 | 0.0 | 3.2 | 0.00 | 0.00 | 0.00 | 65 | 1008.9 |
| 20260904225437 | 22 | 285 | 3.2 | 6.4 | 0.00 | 0.00 | 0.00 | 64 | 1008.9 |
| 20260904224437 | 22 | 138 | 3.2 | 6.4 | 0.00 | 0.00 | 0.00 | 64 | 1008.9 |